Hourly Data Report for October 23, 2015

All times are specified in Local Standard Time (LST). Add 1 hour to adjust for Daylight Saving Time where and when it is observed.

CAPE DORSET A
NUNAVUT

64°13'49.000" N
76°31'30.000" W
48.20 m
2400637
71366
YTE

Download Data

Hourly Data (October 2015)
Hourly Data Report for October 23, 2015
Temp Definition
°C
Dew Point Temp Definition
°C
Rel Hum Definition
%
Wind Dir Definition
10's deg

Wind Spd Definition
km/h
Visibility Definition
km
Stn Press Definition
kPa
Hmdx Definition


Wind Chill Definition


Weather Definition


TIME
00:00 Legend Double Dagger -5.6 -8.0 83 26 11 16.1 101.40   -10 LegendNANA
01:00 Legend Double Dagger -5.5 -7.9 83 23 18 16.1 101.36   -12 LegendNANA
02:00 Legend Double Dagger -5.6 -8.5 80 22 18 16.1 101.30   -12 LegendNANA
03:00 Legend Double Dagger -5.6 -8.4 81 20 17 16.1 101.24   -12 LegendNANA
04:00 Legend Double Dagger -5.2 -7.3 85 19 21 16.1 101.15   -12 LegendNANA
05:00 Legend Double Dagger -4.3 -5.9 89 18 21 8.1 101.05   -11 Snow
06:00 Legend Double Dagger -3.0 -3.7 95 19 26 2.8 100.94   -10 Snow
07:00 Legend Double Dagger -2.8 -3.4 96 18 24 2.0 100.89   -9 Snow
08:00 Legend Double Dagger -2.7 -3.4 95 18 22 2.8 100.82   -9 Snow
09:00 Legend Double Dagger -2.1 -2.7 96 20 24 2.4 100.70   -8 Snow
10:00 Legend Double Dagger -2.0 -2.9 93 20 32 3.6 100.61   -9 Snow
11:00 Legend Double Dagger -2.0 -3.1 92 20 28 4.0 100.53   -9 Snow
12:00 Legend Double Dagger -2.1 -2.9 94 19 24 4.8 100.42   -8 Snow
13:00 Legend Double Dagger -1.7 -2.5 94 19 30 4.0 100.32   -9 Snow
14:00 Legend Double Dagger -1.5 -2.5 93 20 22 4.0 100.22   -7 Snow
15:00 Legend Double Dagger -1.4 -2.1 95 20 22 6.4 100.12   -7 Snow
16:00 Legend Double Dagger -1.3 -2.1 94 20 32 4.0 100.01   -8 Snow
17:00 Legend Double Dagger -1.2 -1.9 95 20 24 12.9 99.93   -7 Snow
18:00 Legend Double Dagger -1.0 -1.4 97 17 24 16.1 99.82   -7 Freezing Rain
19:00 Legend Double Dagger -0.8 -1.1 98 19 21 11.3 99.72   -6 Freezing Rain
20:00 Legend Double Dagger -0.6 -1.0 97 20 22 14.5 99.64   -6 LegendNANA
21:00 Legend Double Dagger -0.5 -1.1 96 19 22 16.1 99.54   -6 LegendNANA
22:00 Legend Double Dagger -0.5 -1.4 94 19 21 16.1 99.42   -6 LegendNANA
23:00 Legend Double Dagger -0.5 -1.4 94 19 21 16.1 99.29   -6 LegendNANA

Notes on Data Quality.

Legend

  • E = Estimated
  • M = Missing
  • NA = Not Available
  • ‡ = Partner data that is not subject to review by the National Climate Archives
Date modified: